Weather in Hickory

United States     35°43′50″N   81°20′17″W
temp.,
°C
wind,
m/s
gust,
m/s
humid.,
%
clouds,
%
prec.,
mm/h
press.,
hPa
HPBL,
m
18 may, tue
tue1823:00+14ne379598 0.5 1026187
02:00+13nne2296100 0.5 102640
05:00+13ne2695100 0.0 1026164
08:00+14ne2692100 0.0 1028269
11:00+17ne2380100 0.1 1029497
14:00+20e2266100 0.1 1028826
17:00+20ene2270100 0.0 1026747
20:00+17e1187100 0.0 102618
19 may, wed
wed1923:00+15nne1192100 0.0 102711
02:00+14nne1195100 0.0 102810
05:00+13nne1196100 0.0 102811
08:00+16ne1188100 0.0 1029128
11:00+22se235756 0.0 10291124
14:00+25ese334395 0.0 10281852
17:00+26ese343962 0.0 10262048
20:00+20e23685 0.0 102648
20 may, thu
thu2023:00+16e117241 0.0 102711
02:00+13wnw017964 0.0 102810
05:00+12nw22875 0.0 102915
08:00+16nnw127614 0.0 1030126
11:00+24e12525 0.0 10301057
14:00+27ese223611 0.0 10281864
17:00+27e3335100 0.0 10262096
20:00+20e226732 0.0 102726
21 may, fri
fri2123:00+17n11707 0.0 102811
02:00+15nnw117650 0.0 102911
05:00+14nw228070 0.0 103015
08:00+17nne2371100 0.0 1031134
11:00+23ene3354100 0.0 1031708
14:00+27e2244100 0.0 10291542
17:00+27e2240100 0.0 10271895
20:00+22e226587 0.0 102813
22 may, sat
sat2223:00+20e016673 0.0 102811
02:00+17wsw1180100 0.0 102811
05:00+15wsw1184100 0.0 102713
08:00+18w1276100 0.0 1027106
11:00+25w2351100 0.0 1026600
14:00+30ese143754 0.0 10232266
17:00+25ese1256100 0.0 102127
20:00+23ese11655 0.0 102113